Location: Branche des Alpilles
(43.6087°N, 4.6976°E)
Time: 10:01:16
(UTC+00:00)

FENGYUN 1C DEB - Pass Details

Date: 27 June 2021
Orbit: 782 x 878 km, 99.7° (Epoch: 28 July)

Event Time Altitude Azimuth Distance (km) Brightness Sun altitude
Exits shadow 23:41:55 - 104° (ESE) 3,039 ? -23.1°
Reaches altitude 10° 23:44:38 10° 83° (E) 2,364 ? -23.1°
Maximum altitude 23:47:01 13° 56° (NE) 2,132 ? -23.1°
Drops below altitude 10° 23:49:23 10° 28° (NNE) 2,355 ? -23.1°
Sets 23:52:55 0° 3° (N) 3,282 ? -23.1°
